Location: Zagreb
(45.8000°N, 16.0000°E)
Time: 21:46:44
(UTC+01:00)

Vanguard 2 Rocket - Pass Details

Date: 29 January 2020
Orbit: 553 x 3327 km, 32.9° (Epoch: 24 February)

Event Time Altitude Azimuth Distance (km) Brightness Sun altitude
Exits shadow 04:46:36 16° 171° (S) 1,663 8.3 -27.1°
Maximum altitude 04:46:51 16° 167° (SSE) 1,675 8.4 -27.1°
Drops below altitude 10° 04:49:53 10° 129° (SE) 2,280 9.6 -26.5°
Sets 04:53:45 0° 109° (ESE) 3,608 11.1 -25.9°
